Location: Asheville, NC
(35.6000°N, 82.5500°W)
Time: 16:22:05
(UTC-05:00)

Vanguard 1 - Pass Details

Date: 14 February 2018
Orbit: 650 x 3833 km, 34.2° (Epoch: 21 February)

Event Time Altitude Azimuth Distance (km) Brightness Sun altitude
Rises 18:58:15 0° 265° (W) 4,148 15.6 -10.2°
Reaches altitude 10° 19:01:37 10° 264° (W) 2,803 14.0 -10.9°
Maximum altitude 19:07:44 78° 179° (S) 763 9.5 -12.1°
Enters shadow 19:11:05 18° 94° (E) 1,616 10.6 -12.8°
